Theta_e
307 306 306 307 307 305 303 302 303 304 305 305 303 303 305 305 296 294 303 305 302 304 306 308 311 313 313 315 317 319 322 322 323 324 323 323 324 325 325 326 327 327 326 327 328 328 328 329 328 328 326 326 328 329 329 329 329 330 332 330 328 327 328 328 329 329 328 325 322 319 316 314 313 312 310 309 308 307 306 305 304 303 303 301 301 300 300
305 306 306 307 306 304 303 303 303 303 303 304 304 303 305 304 303 304 305 305 305 306 308 309 314 317 317 319 321 322 320 320 321 321 322 321 322 323 324 325 326 327 327 327 329 330 330 329 329 327 328 326 326 328 329 329 330 331 331 330 328 327 327 328 329 326 324 321 318 316 314 313 311 310 308 307 306 305 304 304 304 303 302 302 301 300 300
303 306 308 307 305 304 302 303 303 303 304 303 304 304 307 307 304 305 306 306 304 310 312 313 319 318 318 318 317 316 318 319 319 319 320 321 321 321 322 324 325 326 327 327 328 329 330 330 330 328 328 328 327 327 328 329 329 330 330 329 328 327 327 328 326 323 321 318 316 314 313 312 311 308 307 306 305 304 304 304 303 302 302 300 300 300 300
300 304 305 306 306 304 303 303 304 303 303 302 305 302 307 305 303 305 306 303 304 309 313 316 319 317 315 315 316 318 319 318 320 319 319 320 321 321 321 323 324 324 325 326 328 329 329 330 330 329 328 327 327 326 328 328 329 329 329 328 327 326 327 325 323 321 319 317 315 313 312 310 309 308 307 306 305 304 304 304 303 303 301 300 300 301 301
296 303 303 304 304 302 299 303 305 305 306 306 307 308 310 309 308 303 297 301 308 310 312 311 313 315 315 315 315 317 318 318 319 319 319 319 321 322 321 321 322 323 322 325 330 331 330 328 327 328 329 328 327 328 328 329 328 328 327 328 327 326 324 322 321 320 317 315 313 312 311 309 309 307 306 305 304 304 303 304 303 301 301 301 300 300 301
296 301 303 304 300 291 293 306 309 307 305 306 305 304 307 311 311 306 308 308 314 313 312 310 311 313 314 316 320 322 321 321 321 319 320 320 321 322 322 323 322 322 323 324 327 332 332 330 328 328 329 328 329 330 330 328 328 327 327 326 326 324 322 321 319 318 316 314 313 311 310 309 308 307 306 305 305 305 304 303 302 301 301 300 300 300 300
296 303 302 296 289 292 307 311 312 309 309 307 307 310 309 311 313 312 310 310 310 313 313 313 315 319 319 320 320 321 321 323 321 319 319 321 321 322 323 323 322 323 325 328 331 333 331 329 332 331 328 329 330 329 328 327 327 326 326 325 323 322 320 319 319 317 315 314 312 311 310 309 308 307 306 305 304 304 303 302 301 301 300 300 299 300 300
299 296 295 287 291 304 308 313 313 313 311 311 311 309 308 310 311 312 310 310 310 313 314 315 317 318 319 319 320 321 321 323 321 319 319 320 321 322 322 323 325 327 327 332 334 334 332 331 330 329 328 329 328 327 327 326 326 325 324 323 321 320 319 318 317 316 315 313 311 310 309 308 307 306 305 305 304 304 303 302 302 301 300 300 299 299 299
293 293 294 293 302 302 306 310 309 311 307 310 307 296 304 311 312 311 310 310 312 313 314 316 317 319 318 315 316 322 320 322 321 320 319 320 320 322 324 325 330 335 335 334 335 335 333 330 328 329 328 328 328 327 326 325 324 323 322 320 319 319 318 318 317 316 314 312 311 310 309 308 306 306 306 305 304 304 302 302 301 300 300 299 299 299 298
301 295 293 293 292 289 297 307 311 315 314 316 316 310 303 310 311 312 312 311 313 314 315 316 318 319 312 308 312 318 320 322 322 321 321 322 322 323 328 330 330 332 333 332 333 332 332 331 330 329 329 328 327 326 325 323 322 321 320 319 319 318 318 317 316 315 314 312 311 309 309 307 306 306 306 306 304 304 302 301 300 299 299 299 300 300 299
297 295 292 290 289 291 304 307 313 315 316 314 316 308 301 309 312 313 313 312 314 315 315 316 317 310 305 305 312 318 320 321 322 320 319 321 322 324 326 327 326 328 333 332 329 331 331 329 328 329 328 327 325 324 324 322 321 320 320 319 318 318 317 316 316 315 314 313 311 309 308 308 308 306 306 305 304 304 303 302 300 300 300 300 300 300 299
296 295 293 291 293 294 306 311 311 315 314 314 310 296 295 309 313 315 315 315 315 317 315 315 313 309 306 306 312 322 322 321 324 322 320 322 323 324 325 327 329 330 329 327 326 328 328 329 329 328 326 325 325 323 321 322 320 320 319 319 318 317 317 316 315 314 314 313 311 310 309 308 308 307 306 305 304 303 302 301 300 299 298 299 298 298 298
297 293 295 297 296 308 313 310 314 312 316 311 297 291 299 312 314 315 317 317 318 319 318 315 310 313 315 316 322 326 324 324 325 326 326 325 325 324 325 327 321 326 326 325 325 326 327 328 326 326 324 324 323 322 322 321 320 320 319 318 317 316 316 315 314 314 313 312 311 310 309 308 308 307 306 304 304 302 301 301 300 298 298 298 298 297 298
296 299 295 296 299 309 312 315 312 313 309 295 295 306 317 316 314 318 318 319 319 320 320 316 317 322 321 322 323 324 326 324 326 325 326 325 325 327 326 323 324 326 324 327 327 325 326 325 324 324 323 323 321 321 320 321 320 319 317 316 316 315 314 314 313 313 313 313 312 310 309 309 307 305 305 305 304 302 300 299 299 298 298 297 297 296 297
300 296 294 294 290 301 314 313 310 311 301 303 311 314 316 318 317 317 318 320 320 320 318 320 323 321 321 322 322 324 325 326 326 325 325 325 325 325 325 324 325 326 326 325 324 325 324 324 323 323 323 322 321 320 321 320 318 317 316 315 315 314 313 312 312 312 312 312 311 309 309 308 306 305 304 304 303 302 300 299 298 298 297 297 297 296 296
295 295 292 293 301 312 316 314 303 312 316 318 318 318 314 317 318 317 316 319 320 320 320 319 319 322 322 322 322 322 323 324 326 326 326 326 327 326 326 326 325 327 326 325 325 324 323 323 323 323 323 321 320 321 320 318 317 316 315 314 314 312 312 312 312 311 311 310 310 309 308 307 306 305 304 303 302 300 299 298 297 297 296 296 296 295 295
299 298 301 311 314 314 316 316 316 319 321 320 318 318 317 317 317 319 317 317 322 322 321 321 321 320 321 321 323 321 323 324 325 324 325 326 326 325 325 325 325 326 326 326 324 323 323 323 323 324 324 322 321 321 318 317 315 315 314 313 312 311 311 311 311 310 309 309 308 308 307 306 305 304 304 302 299 299 299 298 297 297 295 296 295 295 295
312 313 314 316 315 316 317 317 317 318 319 322 323 320 318 319 320 320 320 320 322 323 324 320 319 318 320 323 322 322 323 322 324 325 324 324 326 326 326 326 324 326 327 326 325 323 322 323 323 323 324 324 322 320 318 317 316 315 313 313 312 311 310 310 309 308 307 307 307 307 306 306 305 304 303 301 300 298 298 298 297 297 296 294 294 295 294
305 299 314 313 313 315 316 316 318 320 320 320 322 322 323 322 323 322 323 322 324 325 323 321 318 318 321 322 322 323 322 321 323 324 323 325 325 325 325 326 324 327 326 325 324 323 322 323 323 323 324 324 323 319 317 317 316 315 313 313 311 310 310 309 309 308 308 306 305 306 305 305 304 304 302 301 300 298 298 297 297 296 295 295 294 294 294
306 306 311 314 315 314 314 314 313 314 315 318 322 322 322 322 323 322 322 323 321 323 323 324 322 319 323 320 322 320 321 322 322 323 323 324 324 326 327 326 326 327 326 325 325 324 322 322 323 323 323 323 321 319 318 317 316 314 313 312 311 310 310 308 307 308 307 301 304 304 304 304 302 302 301 301 300 298 298 297 296 295 296 294 294 294 294
309 312 312 311 316 315 313 313 313 314 314 316 319 320 321 322 322 323 324 323 321 322 321 324 324 322 322 322 321 320 321 322 323 323 323 324 325 325 325 325 325 325 325 324 325 324 323 323 322 322 322 322 320 319 318 317 315 314 313 310 311 311 309 308 307 307 306 304 304 304 303 304 303 303 301 301 300 300 300 300 299 298 297 296 296 296 295
303 304 306 309 305 305 310 311 311 312 313 316 317 318 318 319 319 320 320 322 324 322 323 322 321 319 321 325 325 321 320 322 324 324 323 324 325 324 326 325 326 326 326 326 325 324 323 323 322 321 322 321 320 319 318 317 316 314 312 311 311 310 308 308 307 306 306 304 304 303 303 302 302 301 291 291 297 300 300 292 286 287 291 298 299 297 296
303 307 307 309 310 314 311 310 310 311 312 315 315 314 316 318 319 320 321 320 321 322 324 323 321 321 321 322 324 323 321 323 325 325 324 323 323 323 324 323 324 325 325 325 325 324 323 322 321 321 321 320 319 318 317 317 316 315 312 310 310 309 308 307 305 306 305 304 304 304 303 302 302 300 299 297 288 286 291 293 290 288 287 286 287 288 296
306 308 306 308 310 309 311 312 310 310 311 313 313 314 315 316 317 318 318 318 318 318 320 321 322 320 321 322 323 323 323 324 326 325 325 325 325 324 324 323 323 324 324 324 324 323 324 322 321 321 321 319 319 318 317 317 317 315 313 311 310 309 308 308 304 305 306 305 305 304 303 303 302 300 298 296 295 290 288 289 289 288 288 287 287 288 287
302 304 305 308 310 309 311 314 310 310 310 311 311 312 313 315 315 317 316 317 318 317 317 317 319 320 320 320 321 323 322 323 324 323 321 319 321 322 323 322 322 322 323 323 323 323 323 322 321 321 320 319 319 318 317 317 316 315 313 312 312 310 309 308 304 304 305 305 304 304 303 302 302 301 299 297 295 294 291 288 287 289 288 289 288 288 288
303 304 305 308 310 308 309 312 309 308 308 310 311 312 314 314 314 315 315 316 316 317 317 317 317 318 319 319 319 321 322 322 320 319 322 321 321 321 322 322 322 323 323 323 322 322 323 323 321 321 319 319 319 318 317 317 316 316 314 314 313 311 310 308 306 305 305 306 304 304 304 303 302 301 300 300 298 297 294 292 290 289 289 288 289 288 288
303 303 306 309 308 306 305 305 304 306 307 309 310 310 312 314 314 314 315 315 316 316 316 316 317 318 319 319 317 319 318 318 321 320 320 321 321 321 323 324 324 323 322 322 322 320 319 322 320 320 320 320 319 319 317 317 317 316 315 314 314 304 299 300 308 306 307 306 305 305 304 303 302 300 300 300 300 298 296 294 293 291 291 291 289 289 289
302 301 302 303 301 301 302 305 306 306 306 307 309 309 310 312 312 312 311 312 313 314 315 316 316 316 317 318 319 318 319 319 319 320 320 320 322 322 323 325 325 324 323 322 322 323 322 321 320 320 320 321 320 319 317 317 317 316 315 315 314 312 309 305 308 308 307 307 306 305 304 303 303 301 300 299 299 299 298 297 295 295 294 295 294 289 288
300 299 300 302 303 303 304 305 305 305 305 307 308 308 309 309 309 309 310 310 311 312 311 313 315 315 316 316 317 316 317 318 318 319 320 322 322 323 323 324 325 324 324 322 323 323 322 321 320 319 320 321 320 318 317 317 317 316 315 315 314 313 310 308 309 309 308 308 307 306 298 302 301 301 300 300 299 300 297 298 298 297 297 296 296 293 289
300 300 299 300 301 301 301 301 301 302 303 304 305 305 306 307 306 306 307 309 310 310 310 312 312 313 315 315 316 317 316 317 318 318 318 319 322 323 323 323 323 323 323 322 322 322 322 320 320 319 320 322 320 318 317 317 316 317 316 316 315 313 311 310 310 310 309 308 306 297 302 302 303 302 301 301 300 299 297 299 298 297 296 296 294 294 290
301 301 299 300 300 301 299 300 301 301 302 302 303 303 304 305 304 304 305 307 309 309 310 310 311 312 313 314 316 317 318 318 319 319 320 320 320 321 322 322 320 318 320 321 322 322 322 321 320 320 321 322 321 318 317 317 316 316 316 316 315 303 298 297 299 309 309 306 305 303 303 302 303 302 300 301 300 299 300 299 297 297 296 297 296 296 294
300 299 298 299 298 299 298 298 299 299 300 301 301 301 301 302 302 302 303 304 306 308 309 309 309 310 311 313 315 316 317 318 319 319 320 320 320 321 321 321 321 312 321 322 323 322 322 322 321 321 323 323 321 319 317 317 317 316 315 307 314 313 301 293 303 305 306 305 304 303 301 302 303 302 300 299 299 299 299 299 298 297 297 296 295 296 296
298 298 297 297 298 298 297 298 298 298 299 299 300 301 301 302 302 302 303 304 305 307 308 307 308 309 311 312 313 314 315 316 316 317 317 317 318 320 321 321 321 321 321 321 322 323 323 322 322 323 323 323 322 319 318 317 317 315 316 315 315 313 300 296 299 305 304 305 303 304 304 303 303 301 301 300 300 299 300 299 299 297 297 298 297 298 296
296 296 296 297 297 296 296 297 298 298 299 300 301 301 301 302 302 302 302 303 305 306 307 306 307 309 310 311 311 312 313 313 312 313 315 316 317 318 319 319 321 321 321 321 321 321 322 323 324 324 324 323 322 320 318 317 316 315 315 315 314 312 307 303 301 305 305 304 303 303 302 302 302 302 300 299 300 300 299 298 297 297 298 298 298 298 294
298 298 298 298 298 298 299 298 298 298 299 299 300 301 301 302 302 303 302 303 304 306 306 305 306 307 308 309 310 310 311 311 312 312 313 314 316 317 319 319 319 319 319 320 320 320 321 322 323 324 324 323 322 320 318 317 316 314 315 314 312 311 309 304 303 304 302 303 303 304 303 302 302 296 299 300 300 299 299 298 298 298 298 298 298 298 295
297 297 298 298 298 299 299 299 299 299 299 299 300 300 300 301 302 302 303 303 305 306 305 305 306 306 306 307 307 308 309 310 311 311 312 312 314 316 317 317 317 317 317 318 321 322 322 322 305 303 322 322 321 321 319 318 317 316 315 314 312 310 307 304 301 304 304 305 303 303 303 300 299 300 299 301 300 301 300 299 299 298 298 299 298 297 298
298 297 297 298 298 299 299 299 299 299 300 300 300 300 300 301 301 303 303 304 305 305 304 305 304 304 304 305 306 307 308 309 309 310 310 311 312 313 314 316 317 317 316 316 318 320 320 321 306 297 312 319 319 320 322 298 316 316 314 314 313 310 307 305 305 305 304 303 303 303 302 300 302 302 299 300 301 300 300 300 298 298 299 298 298 298 296
297 297 297 297 297 298 298 299 299 300 300 300 301 300 300 301 302 302 303 303 304 304 304 304 303 304 304 304 305 306 306 307 308 309 309 309 310 310 313 315 316 317 313 307 308 312 317 313 300 308 319 318 319 319 313 294 298 313 315 313 313 311 306 303 302 302 303 304 301 303 301 301 302 302 301 301 301 301 300 301 299 299 299 298 298 297 297
296 297 297 297 297 297 298 298 298 299 299 299 299 300 300 301 301 302 302 302 303 303 304 303 303 303 302 302 303 304 305 306 307 308 308 308 308 310 311 314 315 312 309 307 309 309 307 304 304 314 317 319 319 319 310 293 292 312 314 314 313 312 309 308 306 303 302 304 303 302 302 301 302 302 302 301 301 300 298 299 299 298 299 299 298 297 298
294 295 295 296 296 296 297 297 297 297 298 299 298 298 299 299 300 300 301 301 302 302 303 303 302 300 301 301 302 303 304 305 307 306 307 307 307 308 310 314 314 312 308 297 305 307 301 294 304 317 318 319 319 318 315 305 296 310 313 313 313 311 310 307 307 305 304 304 303 296 301 301 301 302 302 301 300 300 300 301 299 299 299 299 299 298 298
295 295 295 295 296 296 296 296 296 297 297 298 298 299 299 299 299 299 299 299 300 302 302 302 301 300 300 301 302 303 304 304 305 305 306 306 305 305 305 308 312 311 308 305 305 304 303 300 307 311 316 316 317 308 317 302 305 311 312 312 312 312 310 308 306 306 305 304 304 303 303 302 301 303 301 301 301 300 300 300 299 299 299 299 299 298 298
295 295 295 295 296 296 296 297 297 297 297 298 298 299 299 299 299 299 299 300 300 300 300 300 296 300 301 301 302 302 303 304 304 304 305 304 304 304 303 307 310 308 295 298 301 301 306 307 308 303 310 305 305 299 297 308 312 312 312 312 311 309 309 308 306 306 306 305 305 305 303 303 303 302 301 301 301 300 300 300 300 300 300 299 299 299 298
294 295 295 295 295 296 296 296 296 296 297 297 298 298 298 299 299 299 298 298 298 299 299 299 299 297 299 300 300 300 301 302 302 303 304 305 306 307 306 307 306 304 292 299 303 304 304 307 307 309 298 295 299 291 291 306 312 313 312 311 308 309 308 308 307 307 307 307 306 306 305 304 304 303 302 302 301 301 300 300 300 300 299 299 299 299 298
295 295 295 295 295 295 295 296 296 296 296 296 297 298 298 298 299 298 298 297 298 298 298 298 299 299 298 299 299 299 300 301 301 302 302 303 305 307 308 306 304 300 293 300 301 302 305 305 306 300 291 291 290 289 299 306 309 311 312 311 310 310 308 308 308 307 307 305 306 306 306 303 304 306 304 302 300 301 300 300 301 301 300 300 300 299 299
295 295 295 295 296 296 295 295 295 295 296 297 297 297 298 298 298 298 297 297 297 297 296 298 298 298 299 299 299 299 300 301 301 301 300 299 299 302 305 297 302 301 299 293 301 302 303 305 300 290 291 290 290 289 301 305 308 309 311 311 310 309 309 308 307 308 307 307 306 306 305 305 305 305 307 303 299 300 300 300 301 301 300 300 299 299 298
295 295 296 292 295 295 296 296 297 297 297 296 296 297 298 299 298 298 298 297 297 297 298 298 299 299 299 299 299 300 301 301 301 302 303 303 301 302 304 297 301 297 294 292 301 302 303 292 290 291 290 290 289 299 306 307 307 308 310 310 310 309 308 309 308 307 308 306 306 307 306 306 306 306 306 305 303 302 301 299 300 301 301 300 300 299 299
295 295 295 295 295 296 297 297 297 297 297 296 295 295 297 297 297 298 298 298 297 298 298 299 299 299 300 299 299 299 298 299 300 302 303 304 304 300 300 296 295 293 295 301 300 301 301 301 295 291 289 289 289 303 307 308 309 310 310 310 310 310 308 309 309 308 308 308 306 304 300 305 305 306 304 302 304 302 301 301 301 301 301 300 300 297 297
294 294 295 295 295 295 296 296 296 296 296 295 295 296 297 297 298 298 298 298 297 298 298 299 298 298 299 299 300 300 300 300 298 299 303 303 304 304 304 304 302 292 293 293 294 294 291 290 289 289 290 289 298 306 308 308 308 308 309 309 310 311 310 310 309 309 308 308 307 306 305 304 304 305 305 304 303 303 302 301 300 301 300 300 299 299 298
295 295 295 295 295 295 295 295 296 294 296 296 296 296 297 297 297 297 297 298 297 297 297 297 297 298 298 297 298 299 299 300 300 298 302 302 303 302 303 299 294 293 298 302 302 302 295 291 290 289 289 291 304 306 306 307 307 306 306 307 307 308 310 311 310 309 309 309 308 307 306 305 305 305 305 304 303 303 302 302 302 301 301 300 299 299 298
295 295 294 294 294 294 294 294 294 295 296 296 296 297 297 297 296 296 296 296 296 296 296 296 297 297 298 298 299 299 299 299 299 300 301 301 301 301 301 301 301 295 294 302 302 302 295 292 292 294 297 302 302 304 304 305 305 305 307 306 305 307 306 304 298 300 305 306 307 306 306 306 305 302 302 303 303 303 302 302 302 297 293 295 299 299 299
294 294 294 294 294 295 295 295 295 295 296 296 297 296 296 295 296 294 296 297 296 295 295 295 296 297 297 298 299 299 299 299 298 295 298 298 299 296 296 299 301 298 300 301 302 301 302 302 302 299 300 300 302 303 302 303 304 304 302 306 306 305 305 304 305 307 308 307 307 306 306 305 305 305 306 303 302 302 302 302 301 301 300 300 300 300 300
295 295 295 295 295 295 296 295 296 296 296 296 297 296 296 295 295 295 295 291 296 295 295 295 295 297 298 298 297 298 298 298 297 297 295 299 298 299 298 295 302 300 301 301 301 302 301 300 297 295 295 301 301 302 296 295 301 303 304 303 301 305 304 304 305 306 307 307 306 306 304 305 306 304 305 304 303 302 302 302 302 302 300 300 301 300 300
Wind_Speed
1 1 0 1 2 3 2 3 2 5 6 6 7 7 5 5 4 6 7 4 7 7 6 4 3 1 2 3 5 5 8 9 9 10 11 11 11 11 12 12 11 12 12 11 11 12 11 11 11 12 12 11 10 9 9 9 9 9 8 7 7 7 6 6 7 8 8 8 8 10 10 10 10 10 10 9 9 8 8 7 6 6 5 6 6 6 6
2 3 2 2 5 3 5 5 4 3 5 6 7 6 3 6 7 6 6 6 9 7 6 4 3 1 1 4 5 6 8 9 10 10 11 12 12 12 12 12 12 11 12 12 12 12 11 12 12 12 11 11 11 11 9 9 9 8 8 7 7 7 7 7 8 8 9 9 10 10 10 10 10 10 10 10 9 9 8 7 6 6 6 6 6 6 6
5 3 2 3 5 5 6 4 4 5 5 5 4 5 3 4 8 8 7 6 9 1 3 2 3 2 2 4 6 7 7 9 10 10 11 11 12 12 12 11 11 11 11 12 11 12 12 12 12 11 11 11 10 10 9 9 9 8 8 7 7 7 7 8 8 9 9 10 10 11 10 10 10 11 11 9 9 9 8 7 7 6 5 6 5 5 6
4 5 4 3 4 7 6 6 5 5 5 7 5 5 4 6 4 2 4 6 3 6 3 3 2 4 6 6 6 7 7 8 9 9 10 11 11 12 12 12 11 11 12 11 11 12 12 12 12 11 10 10 10 10 9 9 8 8 7 7 7 7 8 8 9 10 10 11 11 11 11 11 11 10 10 10 9 8 8 7 6 6 6 6 5 5 5
1 5 2 3 4 6 8 4 2 2 3 4 2 3 3 6 4 5 3 5 6 3 2 2 4 5 6 6 7 7 8 8 9 10 9 10 10 11 11 12 12 11 12 12 11 11 10 10 11 11 10 9 9 9 9 8 8 8 8 8 8 8 9 9 10 10 10 11 11 11 11 11 10 10 10 10 9 8 8 7 6 6 6 6 5 5 5
2 3 1 3 6 4 3 4 2 3 3 2 4 3 5 6 7 5 6 7 2 2 2 2 2 5 5 4 3 2 5 7 7 8 8 9 10 10 10 10 11 11 10 9 9 9 9 9 9 8 9 8 7 7 8 8 9 8 9 9 9 9 10 10 11 11 11 11 12 11 11 11 10 10 10 9 8 7 7 7 6 6 6 6 5 4 4
0 3 4 4 3 1 5 3 1 2 4 5 6 5 5 2 6 8 9 8 8 5 4 2 1 2 3 2 3 6 6 6 6 7 8 8 8 9 9 10 10 9 9 8 7 8 8 8 7 6 7 7 8 8 8 9 8 9 9 10 10 10 11 11 11 11 12 12 12 12 11 11 10 10 10 9 9 7 6 6 6 6 6 5 4 4 3
1 2 2 1 2 5 1 3 2 1 2 2 4 7 3 1 3 4 6 8 8 2 3 2 1 2 2 2 4 4 6 6 6 6 7 8 9 10 9 10 9 8 9 8 8 7 6 7 7 8 8 8 9 9 9 9 9 9 10 10 10 11 11 11 12 12 12 12 12 12 12 11 10 10 10 9 8 7 6 6 5 5 5 5 5 4 3
1 2 0 2 2 3 5 4 3 2 1 2 2 2 7 6 4 3 5 8 4 0 2 3 4 3 4 5 6 7 7 7 6 6 7 7 9 9 8 8 7 6 5 5 6 6 6 7 7 8 8 9 9 9 10 9 10 10 10 10 10 11 11 12 12 12 12 13 12 12 11 11 11 10 9 9 8 6 7 6 6 5 5 4 4 4 3
3 3 2 0 1 2 4 5 3 1 1 3 3 3 6 7 6 4 5 5 1 3 5 5 5 5 5 5 6 8 8 8 7 6 4 5 5 6 7 6 5 5 5 4 6 6 7 7 7 7 8 9 9 10 10 10 11 11 11 11 11 12 12 12 12 12 12 13 13 12 11 11 11 10 9 7 7 6 6 6 6 5 5 4 4 3 3
2 2 1 2 0 2 4 5 3 1 0 3 1 5 4 7 6 6 4 2 3 5 7 7 6 5 4 2 4 8 8 8 8 7 7 7 6 6 6 6 6 6 6 5 6 6 6 7 7 7 8 9 9 10 11 11 11 11 11 11 11 11 12 12 12 12 12 12 12 12 11 11 10 10 9 8 7 6 6 6 6 5 4 4 4 4 4
2 1 1 2 1 1 4 4 2 2 2 1 4 2 5 8 7 6 4 1 4 6 7 7 5 4 2 5 7 4 4 6 6 7 8 8 7 7 6 5 4 6 7 7 6 7 7 7 7 8 8 9 9 9 10 11 11 11 11 12 12 11 12 12 12 11 11 11 11 11 11 11 9 9 8 7 7 6 6 5 5 5 4 4 4 4 3
3 2 1 1 2 3 2 0 1 1 1 3 2 4 5 6 6 6 3 3 3 5 6 5 3 5 8 7 6 4 3 4 5 4 3 5 6 7 7 7 7 7 7 7 7 7 6 7 7 8 8 8 9 9 9 10 11 11 11 11 12 12 12 12 12 12 11 11 11 10 10 10 9 8 7 8 7 7 6 5 5 5 4 4 4 4 3
2 1 2 2 4 4 1 3 1 2 3 0 6 5 2 3 6 4 3 2 2 3 4 4 5 6 6 5 4 4 3 3 3 3 5 5 4 5 6 8 7 6 7 7 7 7 7 8 8 8 8 9 9 9 9 9 11 11 12 12 12 12 13 12 12 11 11 11 10 9 10 10 9 8 7 8 7 7 5 5 6 5 5 4 4 3 3
0 2 1 2 2 2 1 6 5 2 2 8 4 5 3 1 3 4 4 3 2 3 3 4 1 2 3 2 2 3 2 1 2 4 4 5 6 7 7 8 7 7 8 8 8 8 7 7 7 7 9 10 9 9 9 10 10 11 12 12 12 12 12 12 11 11 11 11 9 8 9 9 10 9 8 8 7 6 6 6 6 6 5 4 4 4 3
1 3 2 2 4 4 4 6 2 4 5 6 6 7 4 3 2 3 5 4 2 2 1 1 2 2 2 1 1 1 2 1 2 2 4 4 3 5 7 8 9 8 8 8 8 7 7 7 6 7 9 9 9 10 11 9 10 11 11 12 12 12 11 11 11 10 11 10 9 9 10 9 9 9 8 8 7 6 6 6 6 5 5 4 4 4 4
1 2 4 6 5 5 2 3 5 6 5 3 4 5 6 4 3 3 2 6 3 3 2 1 1 2 3 3 2 3 2 3 4 4 5 5 6 7 8 9 9 7 8 10 9 8 7 8 6 7 8 9 11 11 10 10 11 12 12 12 11 11 11 11 11 10 10 10 10 9 9 9 9 8 9 8 6 6 6 5 5 5 4 5 4 4 3
3 4 5 4 7 8 6 3 2 5 5 3 3 5 5 3 5 5 5 3 3 3 3 2 3 2 1 3 4 4 4 4 3 3 4 5 6 7 7 8 9 7 8 9 10 10 8 8 7 7 7 9 11 10 10 10 11 12 12 12 11 11 11 10 11 11 11 10 10 10 10 8 8 7 8 7 6 6 6 5 5 4 5 5 5 4 3
3 4 6 9 9 9 10 8 8 7 9 8 8 6 5 5 3 2 3 5 6 2 4 3 0 1 3 3 3 4 4 4 4 5 6 7 8 9 9 9 10 8 10 9 10 10 10 8 7 7 8 8 8 10 10 11 11 11 11 11 11 11 11 10 10 10 11 9 9 9 9 8 7 7 7 6 6 7 6 5 5 5 5 5 5 4 4
3 8 9 8 10 12 12 10 9 11 12 12 11 7 5 6 5 4 3 1 2 3 4 4 3 1 2 3 3 4 4 4 5 6 7 8 8 7 7 9 9 9 9 10 10 10 9 8 8 8 8 8 9 10 10 11 11 11 11 11 11 11 12 10 10 10 10 11 11 9 9 8 7 7 7 7 7 6 6 6 6 5 6 6 5 5 4
8 8 11 14 4 10 16 14 12 10 10 10 11 10 9 7 5 4 2 1 3 2 3 5 6 6 3 2 4 4 3 4 5 5 6 8 9 8 9 9 9 9 10 10 11 10 9 9 8 8 9 8 10 11 11 11 11 12 11 12 10 11 11 10 9 10 9 10 9 9 9 8 7 7 7 8 7 5 5 5 4 5 6 5 4 4 5
3 4 7 11 2 1 10 13 13 13 12 11 11 11 11 11 10 9 8 4 0 2 2 3 3 4 6 4 3 5 4 4 4 6 7 8 9 9 8 7 8 8 9 11 11 11 9 9 9 9 9 9 10 10 11 11 12 12 12 11 11 11 10 10 10 10 9 10 9 9 9 9 8 5 11 10 7 1 6 7 9 9 7 1 1 4 4
3 7 8 6 5 3 7 9 11 11 11 10 12 13 12 12 11 10 9 8 6 4 3 2 4 3 3 3 3 5 5 4 3 5 8 9 10 10 10 9 10 9 9 10 11 11 9 9 10 10 9 10 11 11 11 12 12 12 13 11 10 10 10 10 11 10 10 10 10 9 9 9 8 8 8 5 8 10 9 10 7 7 5 4 7 10 4
5 5 7 7 6 5 5 6 10 10 11 10 10 12 11 11 12 12 10 10 9 8 7 6 5 5 5 4 3 3 3 3 3 4 6 8 9 10 10 10 11 10 10 11 12 12 10 10 10 10 10 11 11 12 12 12 13 13 14 12 11 11 11 10 11 11 10 10 10 9 9 9 9 8 8 9 6 6 6 4 6 4 4 3 2 2 2
5 9 8 6 5 6 4 0 8 10 11 11 9 11 11 11 11 11 11 10 10 11 9 9 8 8 7 5 4 4 3 2 3 4 5 7 8 10 10 11 12 13 12 12 11 11 10 11 11 11 11 11 12 12 13 13 14 14 15 14 12 12 11 11 11 12 10 10 10 10 10 10 9 9 9 9 9 8 5 5 3 3 4 4 5 4 4
6 7 8 6 1 7 6 2 4 12 12 11 10 10 10 9 10 10 11 11 10 11 11 10 10 10 8 8 7 6 5 4 2 4 5 7 9 10 11 13 14 13 12 12 12 12 11 13 12 12 12 12 13 13 13 13 14 14 15 14 14 12 12 12 12 11 11 10 11 10 10 10 10 10 9 9 9 9 9 8 6 4 5 6 7 8 7
6 8 7 7 1 6 9 8 6 10 10 10 10 10 10 9 9 10 9 10 11 11 12 12 11 9 8 8 8 7 7 6 3 4 6 8 10 12 12 12 14 14 14 13 12 12 12 12 11 12 12 12 12 13 13 14 14 14 14 14 12 11 14 14 11 12 11 10 11 10 10 10 10 10 10 10 9 10 10 10 10 10 10 9 10 12 10
9 10 11 6 4 6 8 8 6 7 8 10 10 10 10 8 9 11 13 13 13 12 11 12 12 12 10 10 9 8 7 5 6 6 6 7 7 8 8 9 10 12 12 13 13 12 12 12 12 12 12 11 12 13 14 14 14 14 14 14 13 11 11 13 11 11 11 11 11 11 11 11 11 10 10 10 10 10 9 9 8 9 8 9 10 13 14
3 3 4 5 4 5 7 4 5 7 8 8 8 9 10 10 10 11 12 12 12 12 12 13 12 11 10 10 9 9 8 7 8 8 8 7 7 7 7 8 9 9 10 11 12 12 13 13 13 13 13 12 13 14 14 15 14 14 14 13 13 11 12 13 12 11 11 11 11 11 11 11 10 10 10 10 10 10 8 9 9 8 8 8 8 8 11
3 3 3 3 2 2 2 5 6 8 9 10 11 11 12 12 11 11 11 11 11 11 12 11 11 12 12 11 11 10 10 9 9 8 8 8 7 6 7 7 7 9 10 12 13 13 13 14 15 15 14 14 15 15 15 15 14 15 14 15 14 13 13 14 12 12 11 11 10 11 11 11 11 11 11 11 11 11 9 10 10 9 9 9 9 9 11
3 1 4 4 4 5 7 7 7 8 10 11 11 11 12 12 11 10 11 11 11 11 12 12 11 12 12 12 11 10 10 9 8 8 7 7 7 7 7 7 8 9 11 13 14 14 14 14 14 15 15 15 16 16 16 15 14 14 13 13 13 15 15 17 14 12 11 11 11 12 12 11 11 12 12 12 11 11 11 10 10 10 10 9 10 10 9
1 2 5 6 6 7 8 8 8 9 10 10 11 12 11 11 12 12 11 11 11 11 12 12 12 12 11 11 11 10 11 10 9 9 8 7 7 6 7 8 10 13 13 12 11 12 14 14 15 16 14 12 14 15 15 14 13 13 14 15 14 11 12 18 12 11 11 10 11 12 11 12 12 12 12 12 12 12 11 11 11 11 10 10 10 10 9
3 3 6 9 8 9 9 9 9 10 10 11 9 8 8 8 8 8 9 9 10 10 11 11 12 12 11 11 11 11 11 10 9 10 10 10 9 8 7 7 9 10 11 12 12 12 12 14 15 14 13 13 13 14 15 14 14 13 13 13 13 12 12 14 15 12 12 12 11 12 12 12 12 13 13 13 12 12 12 12 11 11 11 11 10 10 10
7 7 6 6 7 7 9 9 9 8 8 8 8 8 9 9 8 8 9 9 8 9 10 11 11 11 11 11 11 11 11 11 9 10 11 11 10 10 10 9 9 10 11 11 12 12 12 13 13 12 11 12 13 13 14 14 13 13 13 13 13 13 12 13 14 13 12 12 11 13 12 12 13 12 12 12 12 12 12 12 12 11 11 11 10 10 11
4 4 5 5 6 6 7 7 8 8 9 8 8 8 8 8 9 8 9 9 9 9 9 10 10 10 10 10 10 11 11 11 11 12 12 12 12 11 10 10 10 10 11 11 11 11 11 12 12 12 11 11 12 11 12 15 14 13 13 13 13 12 12 13 14 15 13 13 12 13 13 13 13 12 12 12 12 12 12 12 12 12 11 11 10 10 10
4 4 4 5 5 6 6 5 5 6 7 7 8 8 9 9 10 9 9 9 8 8 10 11 10 10 10 11 10 11 11 11 11 12 12 13 13 12 12 11 11 11 11 11 9 10 10 10 11 10 9 10 11 13 14 13 14 13 13 12 11 11 10 11 11 13 12 12 13 13 13 13 13 12 12 12 12 12 12 12 12 12 11 11 10 11 9
4 4 4 4 4 5 5 5 5 5 6 6 6 7 8 9 9 9 9 8 9 9 11 10 10 11 10 10 10 10 9 9 10 10 11 12 12 13 13 12 11 11 11 9 11 13 12 10 10 5 7 11 13 14 13 15 12 13 12 13 12 11 10 10 12 13 13 13 12 12 12 11 12 12 12 12 12 12 12 12 12 12 11 11 11 11 11
4 4 5 4 4 5 5 5 5 5 6 6 6 6 7 8 8 8 8 8 8 10 10 10 10 10 10 10 9 10 10 10 11 11 11 12 12 13 12 10 9 10 11 12 16 15 12 15 18 6 9 11 11 13 12 16 16 13 11 13 13 13 11 10 11 12 12 12 13 12 12 13 14 13 13 13 13 13 13 12 12 12 12 12 12 12 12
4 3 3 4 4 5 6 6 6 6 7 7 7 7 7 8 8 8 8 8 8 9 10 10 10 10 10 11 11 10 11 11 11 11 11 12 12 11 10 9 8 10 11 14 15 13 15 16 14 15 11 10 12 12 10 12 16 13 13 12 13 13 12 12 12 12 13 13 12 12 13 13 13 14 13 13 13 13 13 14 13 12 12 12 12 12 12
2 3 3 3 3 4 4 5 6 7 7 7 7 8 8 9 8 8 8 8 8 8 9 9 10 9 11 11 11 10 12 12 11 12 12 11 11 10 8 6 7 9 11 14 14 13 15 20 16 11 10 9 10 9 10 8 13 11 14 14 13 13 13 13 13 13 13 14 14 14 12 13 14 14 13 13 13 13 13 13 13 12 12 12 13 13 13
3 3 3 3 3 4 4 4 5 6 6 6 6 7 7 8 8 8 8 9 9 9 9 9 9 10 11 11 11 11 11 11 11 12 12 11 10 9 9 8 8 9 11 13 13 13 14 12 14 12 10 10 11 10 10 7 11 11 12 14 14 13 13 13 14 14 14 15 14 15 15 14 13 13 13 13 13 13 13 13 14 14 13 13 13 13 13
2 3 4 4 4 4 4 5 5 5 5 5 5 6 6 7 7 7 8 8 8 9 9 9 9 10 11 11 11 11 11 11 11 11 11 10 10 10 10 8 10 11 13 15 14 13 13 12 11 9 12 14 15 18 19 10 8 10 11 13 14 14 14 13 13 14 14 14 14 14 14 13 13 14 14 14 14 14 13 13 13 13 14 13 13 13 13
3 4 4 5 5 5 5 5 6 6 6 6 6 6 7 6 6 7 7 8 8 8 9 9 9 9 10 10 11 11 10 11 12 12 10 9 9 9 9 9 12 12 14 12 15 13 12 11 11 9 14 14 12 18 19 14 13 12 12 12 13 14 14 14 13 13 14 14 15 15 14 15 15 15 15 15 14 13 13 14 14 14 14 14 14 13 13
5 4 5 5 6 6 7 7 7 7 7 7 7 7 7 6 6 7 7 8 8 8 9 9 9 9 10 10 10 9 9 10 10 9 10 9 8 7 7 9 11 12 12 13 14 12 11 11 10 14 20 22 19 17 12 12 12 12 12 12 12 13 14 14 14 14 14 15 15 15 16 16 15 15 14 13 13 13 14 14 14 14 14 14 14 13 13
5 5 5 6 7 7 7 7 7 8 8 8 8 8 8 8 7 6 7 7 8 8 9 9 9 9 9 9 9 9 9 9 9 9 10 10 10 8 8 10 11 11 11 13 12 12 11 11 13 17 17 20 20 19 12 10 11 12 13 12 13 13 13 14 14 14 15 15 15 15 15 15 15 16 15 14 14 13 13 14 15 14 14 14 14 14 14
6 6 6 6 7 8 8 8 8 8 8 9 10 9 9 8 7 7 7 7 8 8 9 9 9 9 9 10 10 10 10 9 9 9 8 9 9 10 9 9 11 9 10 12 11 11 11 12 15 16 17 19 18 14 12 12 10 11 12 13 13 13 13 14 14 14 14 15 15 15 15 15 14 16 16 15 15 15 15 16 13 13 13 14 14 14 14
7 7 7 8 8 8 9 8 8 9 10 10 10 9 7 8 8 7 8 8 9 9 9 9 9 9 9 10 10 10 10 10 9 8 8 8 9 9 10 9 8 7 9 11 12 11 11 12 13 16 17 17 17 12 12 10 11 11 12 13 13 13 13 13 14 14 14 15 15 15 15 14 13 14 15 15 14 13 12 12 13 13 13 13 13 14 13
8 8 8 8 9 10 10 9 9 9 9 10 10 9 9 9 9 8 9 9 10 10 10 9 9 10 10 10 9 9 10 10 11 10 8 10 10 11 11 11 10 10 10 11 11 10 13 12 14 15 16 15 12 12 11 10 10 10 11 12 13 13 14 13 13 14 14 14 14 14 13 13 14 15 15 14 15 15 15 14 15 14 13 13 14 14 15
9 9 9 9 10 10 10 9 9 9 9 8 9 8 8 9 9 9 9 9 10 9 9 10 11 10 10 9 10 9 9 9 9 11 10 10 11 11 12 12 12 10 10 11 13 12 11 11 12 13 12 12 10 11 11 12 12 12 12 12 12 13 14 14 14 14 13 13 15 14 14 14 16 16 16 14 14 14 14 14 15 14 14 13 14 14 14
10 9 9 9 9 9 9 9 8 8 8 8 8 8 8 8 9 9 9 9 10 10 10 10 10 10 9 9 9 9 9 10 11 11 11 12 13 12 12 13 12 11 11 12 13 12 12 13 11 8 10 12 11 12 12 12 12 13 12 13 13 13 13 14 13 15 15 16 14 13 11 12 14 16 15 14 14 13 14 14 15 18 23 16 12 13 13
9 9 10 10 10 10 11 10 10 9 9 9 9 9 9 10 10 10 10 10 10 11 11 11 11 10 10 9 9 9 10 10 10 11 12 13 13 13 13 12 13 12 12 12 11 11 12 11 11 12 11 11 11 11 12 13 13 13 13 13 14 13 13 13 13 15 16 16 16 14 15 14 14 16 15 16 14 14 14 13 13 13 13 14 14 13 14
11 11 11 11 11 11 11 11 11 10 10 10 10 10 10 10 10 11 11 11 10 11 11 12 12 10 9 10 10 10 9 11 12 12 12 12 12 13 13 12 12 12 11 11 12 12 11 11 11 10 9 10 11 12 12 13 13 13 14 13 13 14 14 13 14 13 15 15 16 16 18 15 11 13 13 15 14 13 12 12 14 13 13 14 15 14 13
Wind_Direction
22 17 191 283 232 284 315 295 172 187 188 200 229 256 283 270 284 309 14 357 318 341 340 346 359 309 168 165 165 151 149 155 159 166 171 176 178 175 178 178 180 185 187 189 192 194 198 203 204 207 210 207 207 204 205 200 201 195 190 195 202 203 193 188 173 154 142 135 130 127 128 129 130 126 120 118 117 113 110 107 105 107 104 96 93 91 86
175 161 186 190 238 212 232 222 229 223 209 221 240 265 259 253 267 296 308 311 303 296 336 337 60 63 128 119 140 149 162 164 166 171 176 181 182 180 182 180 182 186 190 189 191 194 199 201 204 208 209 212 208 206 203 201 198 194 189 194 199 191 187 176 154 149 138 132 132 130 131 132 129 125 123 120 117 115 111 110 109 103 97 93 94 93 89
171 139 193 217 242 254 263 237 231 232 241 258 256 264 230 273 267 271 273 281 287 49 51 18 90 114 165 155 170 177 170 171 175 181 183 184 186 185 185 183 184 186 190 192 191 194 198 202 204 208 209 211 213 210 205 199 197 188 186 184 187 185 178 157 151 141 138 135 133 134 132 129 130 128 124 122 120 116 113 111 111 110 103 98 92 85 85
175 160 210 205 248 256 266 274 246 236 228 242 206 240 214 239 285 269 262 264 266 101 122 134 162 186 195 190 178 174 179 180 178 187 188 187 189 188 185 184 185 185 190 190 193 196 199 201 204 205 206 209 206 206 193 191 184 181 181 176 174 172 154 149 147 144 138 137 136 133 135 135 133 126 125 126 122 119 120 119 113 107 103 99 97 93 86
145 117 226 232 248 252 240 205 101 213 221 269 259 245 217 238 279 267 263 320 15 19 114 216 171 204 200 204 195 184 189 187 185 191 192 190 188 187 187 186 186 188 191 190 193 197 200 203 204 203 202 206 201 196 184 181 169 174 170 169 165 156 150 152 147 139 140 140 137 138 137 134 130 131 129 126 125 125 122 119 119 112 106 105 98 93 92
99 138 177 232 238 243 82 63 38 353 320 301 258 245 235 217 217 285 329 320 30 147 186 246 178 199 206 210 177 192 194 182 193 197 196 195 188 185 187 186 191 190 192 193 191 194 202 201 204 202 199 200 191 180 169 169 166 170 165 162 157 151 151 147 144 146 145 142 140 137 135 135 135 133 131 126 125 123 125 124 116 114 112 104 101 94 93
195 137 221 233 246 76 70 140 76 317 291 273 267 283 289 265 221 253 271 290 286 254 246 246 8 55 109 146 193 188 187 193 198 200 196 196 188 185 186 191 196 186 185 186 181 184 198 197 183 180 177 172 165 167 168 168 168 164 160 155 151 150 148 148 148 147 146 143 139 138 139 138 136 133 128 129 131 132 131 126 126 123 120 110 98 104 106
236 235 186 241 49 32 35 87 54 51 217 266 259 254 204 169 241 246 275 309 323 330 201 177 102 133 143 158 173 190 174 192 196 198 197 190 187 190 189 190 186 186 187 186 184 181 175 178 181 189 179 175 176 175 173 165 159 158 155 152 151 150 149 150 150 148 146 142 140 141 141 140 137 134 135 137 134 131 128 124 118 113 110 111 116 116 110
345 353 318 348 352 190 134 153 129 230 356 183 286 19 73 60 48 332 319 323 344 167 159 134 136 143 168 195 159 171 173 179 192 196 192 187 188 183 181 180 173 171 169 181 178 173 179 191 190 195 181 179 178 170 165 158 157 154 153 150 148 150 150 151 150 149 146 144 144 145 144 143 140 138 138 138 135 135 133 131 128 124 119 120 120 115 115
291 322 358 157 127 96 101 69 95 99 308 326 324 280 122 47 39 2 327 323 43 133 133 142 142 166 203 215 157 160 172 175 180 190 161 159 168 162 164 148 163 170 178 184 174 187 184 191 193 185 176 177 175 168 162 158 155 154 154 151 153 153 152 150 150 148 148 146 146 147 148 145 140 139 140 138 136 141 138 134 128 126 133 128 128 116 107
231 247 299 68 36 57 17 96 90 112 218 264 275 256 111 44 14 10 341 333 134 142 141 140 167 200 199 108 90 137 170 174 182 185 182 182 177 171 173 176 183 169 161 172 167 172 180 180 177 171 173 177 177 172 163 158 156 153 153 149 152 152 149 149 148 147 148 147 147 148 147 140 140 142 142 139 138 142 134 129 130 140 143 137 130 124 106
254 299 253 89 41 63 109 100 108 74 207 191 253 250 46 28 20 8 351 359 146 146 146 158 184 243 103 104 90 92 171 186 179 201 188 183 177 173 166 148 146 141 147 153 169 173 181 174 164 171 175 179 181 170 165 157 154 151 149 149 148 145 145 146 145 144 145 145 146 147 140 138 142 140 137 138 143 141 139 140 139 134 148 128 135 118 129
125 244 293 163 149 94 91 290 107 112 63 258 254 48 28 27 22 23 1 46 133 161 166 197 180 71 47 74 104 102 115 147 165 178 184 181 184 183 163 140 142 152 161 169 165 168 161 158 164 168 173 172 168 162 157 155 148 141 140 140 142 143 144 144 144 143 142 144 143 140 138 139 138 137 141 142 143 141 141 132 129 134 130 132 131 137 137
227 177 252 75 72 55 31 88 92 108 218 57 55 73 51 17 43 41 22 56 126 182 204 219 28 61 78 62 82 108 119 126 139 156 157 150 124 92 106 134 158 149 145 139 140 137 142 155 156 160 162 158 160 152 153 148 136 133 135 138 141 143 145 145 142 141 140 137 137 136 136 137 139 141 141 143 141 143 142 134 144 143 150 149 147 146 147
93 217 233 184 132 72 151 134 135 195 314 69 76 108 108 12 56 47 58 54 109 197 208 254 312 41 61 55 44 38 62 72 146 162 178 181 167 155 143 154 156 150 141 147 141 140 144 149 151 157 158 156 149 148 144 134 133 134 135 139 144 145 144 142 140 139 137 138 137 138 140 143 143 142 146 143 140 139 138 148 152 152 154 155 160 164 170
215 174 176 60 52 67 155 215 27 82 19 14 8 334 87 91 50 51 87 91 106 183 253 256 254 258 261 215 163 217 202 203 172 175 172 168 178 166 165 158 155 160 148 141 136 136 135 140 150 153 154 148 145 144 134 134 130 132 138 142 143 142 141 141 140 139 140 140 138 140 144 147 147 148 147 143 147 150 156 164 161 163 161 167 182 176 185
283 41 41 47 25 15 34 287 317 345 7 11 359 332 324 319 72 352 40 79 133 179 185 192 240 242 245 254 226 241 227 200 201 194 187 181 174 176 163 156 155 167 153 143 137 135 135 142 150 155 154 145 143 138 135 139 140 141 142 143 143 142 144 144 143 145 146 146 145 147 150 154 153 152 146 151 155 158 169 176 170 169 168 175 191 186 185
100 70 41 22 60 49 64 91 17 359 352 350 287 279 285 320 356 345 356 21 116 166 192 200 163 218 148 209 218 226 222 228 192 188 179 173 170 167 162 153 163 163 145 142 140 137 137 146 152 151 150 149 147 140 142 147 147 146 145 145 145 147 146 147 149 150 149 149 150 151 157 162 162 156 154 160 164 169 179 181 176 179 179 179 193 186 190
206 118 56 56 65 50 40 45 39 30 12 2 349 324 296 285 295 334 1 345 327 288 203 221 318 132 217 220 215 209 221 218 202 190 184 178 177 174 172 162 161 155 151 149 146 143 146 156 155 148 146 151 141 143 149 151 151 150 149 147 146 148 149 150 152 154 153 155 153 157 165 168 165 161 161 167 169 177 188 182 182 184 184 186 192 190 195
209 102 54 25 95 73 55 34 22 12 1 356 358 355 335 321 312 289 289 308 282 304 283 268 269 282 222 247 235 223 206 213 199 196 189 179 176 176 172 164 175 163 163 156 152 154 156 162 160 151 151 148 147 150 152 152 153 152 151 154 154 155 155 156 158 160 160 147 156 163 170 171 168 167 170 173 178 185 194 186 188 186 189 191 194 194 190
125 112 38 360 196 85 49 32 26 15 2 350 2 9 15 15 10 7 349 255 315 297 297 331 312 300 277 255 260 254 230 202 196 191 188 185 178 171 175 174 183 174 169 165 161 164 160 162 159 158 157 150 152 157 155 156 156 156 154 156 158 157 159 159 161 165 162 163 174 168 170 175 173 174 180 181 181 186 193 203 203 197 192 184 195 190 201
75 37 13 345 343 28 19 20 10 2 360 358 8 12 18 15 11 7 2 6 126 270 268 265 272 288 316 332 303 277 267 247 204 184 182 182 177 179 178 173 184 181 179 171 168 171 162 162 165 164 162 158 161 164 160 161 162 159 156 159 163 163 167 166 164 167 167 171 176 174 172 175 169 130 47 51 29 284 178 83 57 44 24 34 189 188 187
69 18 2 4 320 309 57 15 7 5 2 5 17 20 15 16 16 9 5 9 10 18 20 328 304 277 258 307 307 297 292 289 250 206 187 181 183 182 178 177 186 189 184 180 175 175 166 164 171 170 168 168 168 171 169 169 169 166 162 166 171 172 173 177 172 173 171 175 177 179 177 176 174 166 175 143 81 44 22 112 91 81 77 45 31 26 8
283 340 354 339 338 351 345 19 17 11 8 8 19 21 19 18 20 20 27 29 22 17 15 22 11 340 317 301 280 267 281 283 257 235 224 204 189 182 181 190 188 187 186 186 187 184 172 173 176 176 175 177 177 176 176 175 174 173 173 175 178 180 179 174 166 177 177 176 177 180 179 180 179 179 177 177 164 82 64 89 116 120 118 90 65 129 73
329 333 315 321 344 348 321 317 31 15 12 11 15 17 15 14 17 23 28 31 31 28 26 16 8 5 345 331 303 285 269 229 207 214 223 222 203 192 192 193 193 194 196 195 194 190 183 182 183 181 184 184 183 182 181 180 179 180 182 184 182 179 177 172 171 181 182 177 181 182 181 180 185 186 188 185 185 180 144 112 120 163 177 185 181 174 172
319 324 308 275 297 24 1 223 34 9 8 9 13 15 20 27 18 26 34 32 31 29 29 24 18 11 2 353 343 330 307 278 183 175 198 208 211 206 198 199 200 200 201 200 199 197 193 188 187 185 190 188 187 186 184 184 184 186 186 188 185 179 177 171 173 179 186 182 184 185 184 185 188 189 193 193 194 181 176 181 174 186 203 207 201 185 191
352 352 324 202 110 32 25 23 3 350 2 8 12 14 18 29 34 38 37 36 35 30 29 24 21 16 17 17 356 345 329 327 312 223 221 213 216 220 216 208 202 201 201 201 201 200 195 190 192 195 199 193 187 185 185 187 186 189 190 190 190 179 166 171 178 181 186 185 186 186 185 187 188 190 194 196 196 188 188 183 188 195 199 197 195 200 198
2 8 10 35 34 355 352 352 358 357 11 11 13 16 19 29 38 39 36 31 30 28 29 25 23 19 17 13 2 358 349 327 303 287 265 243 234 229 237 243 229 211 205 206 208 199 195 197 201 205 207 197 187 186 188 188 189 191 192 191 191 186 176 180 185 185 186 187 186 186 186 189 190 191 195 194 196 195 194 191 194 195 198 196 190 189 200
7 17 15 38 343 339 331 339 1 16 22 21 20 23 21 27 35 36 34 29 22 21 21 19 20 22 18 14 8 1 351 339 326 313 296 284 272 252 232 217 222 232 229 222 217 206 199 202 204 208 209 197 190 189 190 189 191 192 192 192 192 189 181 186 192 188 188 185 187 187 186 186 186 191 195 197 198 199 196 198 198 200 202 188 178 161 184
348 29 11 31 327 355 13 22 17 17 20 20 23 26 24 23 27 26 23 21 18 20 14 10 12 13 12 13 10 2 351 338 326 318 313 309 300 280 258 244 225 215 220 227 226 217 208 206 207 210 209 197 193 189 190 190 194 195 194 193 195 192 188 184 187 188 185 186 183 168 178 186 191 191 194 197 198 201 202 202 198 199 202 192 181 183 186
333 18 27 21 33 36 37 27 22 20 17 16 19 20 20 20 23 18 14 7 10 9 5 5 5 2 5 4 360 357 353 347 337 326 318 312 301 295 285 263 241 230 223 224 222 220 221 218 216 218 213 199 191 188 188 190 193 193 195 196 201 197 182 170 181 185 185 184 177 181 188 189 193 194 195 197 196 200 203 202 197 202 203 201 193 201 197
289 102 47 38 35 34 37 24 21 19 14 12 14 18 15 12 11 8 3 1 359 357 356 358 360 358 353 352 351 354 357 356 355 355 346 333 316 302 284 271 261 260 263 257 240 223 223 223 224 227 221 208 197 191 188 190 190 192 198 198 198 192 175 172 181 187 188 185 180 183 188 190 194 195 194 197 197 198 200 202 201 201 204 206 204 202 199
38 65 35 19 14 23 24 20 12 9 8 8 10 5 7 8 5 2 3 351 350 353 357 355 351 348 346 348 349 353 357 356 1 6 4 356 348 332 311 287 275 270 266 265 264 254 239 231 230 229 221 211 203 195 192 192 193 198 200 197 200 194 171 178 186 183 191 189 188 189 187 190 193 195 198 196 198 198 200 202 203 203 205 207 207 202 199
39 40 32 18 12 7 0 359 4 3 2 4 4 2 4 3 2 356 358 345 349 353 355 349 344 342 345 347 348 350 352 354 1 359 355 351 348 340 328 310 290 276 271 271 268 263 261 255 253 247 234 220 209 200 197 196 199 204 201 200 197 192 175 181 183 191 194 196 196 188 189 187 194 197 196 195 197 198 200 200 203 203 205 206 207 207 181
43 32 32 27 19 14 3 359 0 359 357 358 0 2 1 359 353 356 351 343 351 350 349 344 342 344 345 347 348 351 351 353 349 346 345 345 342 337 327 317 307 295 285 278 275 273 272 274 275 269 257 244 226 211 202 202 203 205 206 202 199 197 184 173 181 192 196 193 190 188 192 193 196 195 196 196 196 196 197 199 202 201 206 205 204 205 179
28 32 36 27 22 12 11 6 3 354 353 354 354 353 355 356 351 352 350 349 346 349 350 344 343 345 347 349 349 347 347 346 345 342 341 341 338 336 330 327 321 316 308 307 303 297 290 277 265 264 263 250 242 230 212 203 205 209 208 206 202 202 184 175 184 190 193 188 190 192 195 190 187 189 191 196 198 198 198 197 201 200 205 204 202 200 183
27 24 23 17 18 7 6 2 359 349 353 349 349 351 353 352 352 348 343 349 352 357 350 344 346 347 346 345 339 338 340 341 341 339 339 338 337 335 331 329 334 340 337 337 357 347 331 321 321 220 228 249 252 243 226 191 207 213 210 210 210 206 192 184 188 193 195 194 192 190 186 180 190 193 191 197 199 202 200 199 197 200 202 203 201 200 189
2 12 12 8 359 6 1 3 355 354 356 352 354 356 355 348 347 346 348 350 354 355 346 345 348 343 342 341 339 340 340 339 337 334 335 338 340 332 329 331 348 359 7 10 350 339 337 344 332 276 266 264 264 259 236 193 203 213 223 218 214 210 202 195 189 195 194 197 194 190 186 191 193 194 193 197 202 201 199 200 197 197 201 200 202 199 197
347 11 5 355 350 357 352 358 360 0 357 357 355 356 359 349 346 348 354 355 357 352 343 347 344 345 347 344 343 340 341 339 334 332 333 335 336 328 326 331 25 17 21 359 349 343 340 333 318 310 293 284 275 273 251 189 196 211 228 228 221 217 209 201 195 194 197 196 191 191 191 194 197 196 195 195 197 197 199 197 195 193 197 199 199 199 199
307 330 331 333 338 348 344 349 351 350 352 351 353 354 353 349 351 347 350 349 351 346 342 342 345 347 343 343 340 339 337 335 334 333 334 332 329 323 322 321 35 8 23 3 348 338 330 316 312 306 309 306 295 282 286 185 184 214 227 231 231 224 218 209 205 204 201 200 201 197 200 196 197 198 198 192 191 195 196 194 197 195 199 199 200 200 199
295 301 312 308 316 317 324 330 333 336 332 337 342 343 340 342 338 336 340 341 341 340 340 341 343 341 337 336 332 332 329 330 333 334 334 329 330 328 328 318 4 358 18 0 338 327 315 319 334 326 313 316 316 310 299 170 183 221 226 234 235 232 226 214 210 208 206 202 202 199 202 204 196 196 200 195 195 195 193 191 196 196 198 199 199 199 198
292 300 303 307 301 313 316 310 308 309 319 321 320 316 325 326 323 320 324 326 331 332 336 336 347 332 328 327 328 328 326 331 332 331 333 331 330 328 325 329 355 352 14 349 335 329 330 328 330 340 359 351 337 336 324 290 235 230 237 236 237 235 233 224 214 212 211 208 205 205 202 203 202 199 198 195 195 195 195 192 195 198 199 198 198 197 196
310 314 309 308 307 305 302 303 297 301 300 302 310 319 318 313 312 314 320 324 327 329 333 330 331 322 329 329 330 327 328 329 328 327 327 326 328 325 325 342 344 343 352 338 337 327 328 323 324 339 353 338 326 323 315 299 277 258 245 242 238 237 234 230 226 218 213 211 209 208 206 204 206 204 201 201 202 193 191 193 197 196 196 196 196 195 196
292 292 294 299 304 309 301 294 292 292 295 302 308 305 302 302 303 310 318 321 321 326 328 325 325 327 326 327 325 324 325 326 324 325 324 322 326 327 348 350 337 334 341 340 333 327 323 322 326 341 331 322 321 322 314 301 285 271 254 246 241 237 235 235 230 227 222 218 215 212 210 208 208 210 210 200 199 197 194 197 197 195 194 194 194 194 193
284 293 296 301 303 298 290 290 293 298 297 296 291 288 293 295 293 299 309 312 314 317 315 315 319 321 321 323 321 319 315 314 312 319 319 321 321 322 345 340 334 331 337 331 321 325 324 328 330 323 313 312 315 319 308 298 284 275 265 254 245 241 238 236 236 233 227 224 221 219 216 212 207 208 211 204 196 198 196 195 198 194 191 193 193 191 191
275 283 292 287 285 291 298 298 293 285 283 284 285 281 274 275 289 299 298 301 308 310 309 310 309 311 313 315 315 313 309 308 312 310 308 309 314 320 326 328 320 318 320 314 323 321 321 325 315 306 307 305 312 312 314 307 291 278 269 260 252 247 243 242 238 234 234 230 226 223 219 217 213 211 209 203 196 200 199 196 197 194 193 192 193 192 189
282 288 290 293 294 292 291 287 283 278 276 275 277 281 288 291 291 289 294 298 301 302 303 303 303 304 307 310 310 312 313 312 309 310 310 309 311 310 316 298 291 315 318 318 317 314 314 309 305 303 302 303 305 303 307 305 305 293 282 270 264 255 252 246 244 243 236 232 230 228 227 225 223 225 215 213 208 200 200 190 203 200 196 190 191 187 189
279 283 285 289 292 294 289 281 274 271 274 278 282 285 286 285 285 284 289 294 296 297 298 301 305 308 306 301 301 301 303 305 306 306 313 315 314 313 311 317 321 307 300 294 288 291 292 288 290 293 300 302 298 307 314 315 310 304 296 288 277 270 263 260 252 248 245 244 235 226 223 225 227 227 227 215 206 202 198 191 194 197 196 190 190 188 189
273 280 285 286 285 282 280 279 277 273 271 277 282 284 287 287 286 282 282 285 289 295 302 306 303 302 302 302 295 294 294 297 298 303 309 307 307 309 311 309 302 301 303 309 311 313 307 295 292 292 295 294 310 322 318 316 313 309 302 296 292 286 280 274 263 262 257 250 248 239 225 222 222 226 226 223 214 207 203 198 194 193 193 192 190 190 187
274 278 280 281 283 283 285 285 281 283 290 292 290 291 293 290 284 284 290 293 297 300 297 297 300 301 299 300 301 302 302 301 298 297 301 306 304 302 304 305 304 296 287 293 303 303 308 307 297 313 327 325 326 321 323 320 318 314 310 304 296 289 285 283 282 275 271 268 262 250 240 231 228 224 225 223 217 207 203 200 199 196 192 191 193 190 188
277 276 278 280 280 280 279 276 277 280 283 285 288 291 289 284 284 287 286 288 291 292 295 295 295 296 297 298 301 303 301 300 303 307 304 298 299 294 289 293 296 292 287 281 294 307 315 316 323 325 323 326 324 326 327 323 316 310 305 301 299 295 292 285 280 277 274 267 263 258 255 248 239 232 225 224 220 214 213 205 204 199 190 193 196 195 192
273 272 272 271 272 274 276 275 274 273 272 273 275 278 280 286 289 289 288 287 287 288 289 292 289 289 297 300 297 297 303 306 301 298 294 293 294 298 299 291 288 289 289 301 307 306 307 309 309 308 309 316 326 325 318 312 313 312 307 304 300 297 293 290 286 283 280 275 271 263 256 251 240 243 239 233 223 217 208 211 210 202 193 194 196 194 193